Location: DARK SKY Beskydy - Park tmavé oblohy, www.darkskybeskydy.cz
(49.4926°N, 18.5016°E)
Time: 15:38:32
(UTC+02:00)

Vanguard 3 - All Passes

Search period start: 17 July 2024 00:00
Search period end: 27 July 2024 00:00
Orbit: 508 x 3230 km, 33.4° (Epoch: 17 July)

Date Brightness Start Highest point End Pass type
(mag) Time Alt. Az. Time Alt. Az. Time Alt. Az.
17 Jul - 00:49:34 10° SSW 01:01:42 28° SE 01:16:15 10° E visible
17 Jul - 02:58:44 10° SW 03:14:41 44° SSE 03:32:01 10° ESE visible
17 Jul - 05:11:22 10° WSW 05:28:57 46° S 05:44:57 10° SE daylight
17 Jul - 07:26:45 10° W 07:42:12 31° SSW 07:54:45 10° SSE daylight
17 Jul - 09:50:09 10° WSW 09:52:59 11° SW 09:55:39 10° SW daylight
17 Jul - 23:34:35 10° SSE 23:42:55 17° SE 23:52:47 10° E visible
18 Jul - 01:40:40 10° SW 01:54:33 37° SSE 02:11:17 10° E visible
18 Jul - 03:51:38 10° WSW 04:08:23 47° S 04:25:42 10° ESE visible
18 Jul - 06:05:25 10° W 06:22:28 40° SSW 06:37:22 10° SE daylight
18 Jul - 08:22:40 10° W 08:34:40 21° SW 08:44:45 10° S daylight
19 Jul - 00:23:49 10° SSW 00:35:08 28° SE 00:49:27 10° E visible
19 Jul - 02:32:49 10° SW 02:47:53 44° SSE 03:05:33 10° ESE visible
19 Jul - 04:45:04 10° WSW 05:02:08 45° S 05:18:51 10° SE daylight
19 Jul - 07:00:05 10° W 07:15:34 31° SSW 07:28:51 10° SSE daylight
19 Jul - 09:23:30 10° WSW 09:26:36 11° SW 09:29:34 10° SW daylight
19 Jul - 23:08:54 10° SSE 23:16:33 17° SE 23:25:52 10° E visible
20 Jul - 01:14:56 10° SW 01:27:54 37° SSE 01:44:31 10° E visible
20 Jul - 03:25:37 10° WSW 03:41:33 47° S 03:59:20 10° ESE visible
20 Jul - 05:38:59 10° W 05:55:40 39° SSW 06:11:19 10° SE daylight
20 Jul - 07:55:59 10° W 08:08:06 21° SW 08:18:43 10° S daylight
20 Jul - 23:58:14 10° SSW 00:08:40 27° SE 00:22:29 10° E visible
21 Jul - 02:07:02 10° SW 02:21:09 44° SSE 02:38:52 10° ESE visible
21 Jul - 04:18:57 10° WSW 04:35:16 45° S 04:52:32 10° SE visible
21 Jul - 06:33:33 10° W 06:48:48 30° SSW 07:02:44 10° SSE daylight
21 Jul - 08:57:24 10° WSW 09:00:08 10° SW 09:02:45 10° SW daylight
21 Jul - 22:43:24 10° SSE 22:50:17 17° SE 22:58:48 10° E visible
22 Jul - 00:49:22 10° SW 01:01:20 37° SSE 01:17:33 10° E visible
22 Jul - 02:59:46 10° WSW 03:14:44 46° S 03:32:42 10° ESE visible
22 Jul - 05:12:44 10° W 05:28:48 39° SSW 05:44:58 10° SE daylight
22 Jul - 07:29:28 10° W 07:41:25 20° SW 07:52:23 10° S daylight
22 Jul - 23:32:48 10° SSW 23:42:19 27° SE 23:55:22 10° E visible
23 Jul - 01:41:25 10° SW 01:54:30 43° SSE 02:11:57 10° ESE visible
23 Jul - 03:52:59 10° WSW 04:08:24 44° S 04:25:57 10° SE visible
23 Jul - 06:07:13 10° W 06:21:58 30° SSW 06:36:19 10° SSE daylight
23 Jul - 08:32:55 10° SW 08:33:32 10° SW 08:34:09 10° SW daylight
23 Jul - 22:18:05 10° SSE 22:24:07 16° SE 22:31:39 10° ESE visible
24 Jul - 00:23:56 10° SW 00:34:53 36° SSE 00:50:26 10° E visible
24 Jul - 02:34:05 10° WSW 02:48:00 45° S 03:05:51 10° ESE visible
24 Jul - 04:46:40 10° W 05:01:56 37° SSW 05:18:24 10° SE daylight
24 Jul - 07:03:09 10° W 07:14:40 19° SW 07:25:44 10° S daylight
24 Jul - 23:07:29 10° SSW 23:16:05 26° SE 23:28:10 10° E visible
25 Jul - 01:15:57 10° SW 01:27:57 42° SSE 01:44:52 10° ESE visible
25 Jul - 03:27:11 10° WSW 03:41:36 42° S 03:59:08 10° SE visible
25 Jul - 05:41:04 10° W 05:55:07 28° SSW 06:09:38 10° SSE daylight
25 Jul - 21:52:56 10° SSE 21:58:04 15° SE 22:04:26 10° ESE visible
25 Jul - 23:58:38 10° SW 00:08:33 35° SSE 00:23:12 10° E visible
26 Jul - 02:08:32 10° WSW 02:21:20 44° S 02:38:47 10° ESE visible
26 Jul - 04:20:46 10° W 04:35:05 36° SSW 04:51:32 10° SE visible
26 Jul - 06:37:06 10° WSW 06:47:53 18° SW 06:58:43 10° S daylight
26 Jul - 22:42:18 10° SSW 22:49:58 25° SE 23:00:55 10° E visible
